Home > Weather > Appleton > Past weeks

Flag for USA Past Weather in Appleton, Wisconsin, USA — Yesterday and Last 2 Weeks

Now
70 °F

Clear.


Feels Like: 70 °F
Forecast: 67 / 83 °F
Wind: 3 mph from West

Location: Appleton / Outagamie

Current Time: Aug 30, 2016 at 12:17:36 AM

Latest Report: Aug 29, 2016 at 11:35 PM


Visibility: 10 mi

Pressure: 30.16 "Hg

Humidity: 94%

Dew Point: 68 °F

Location of AppletonLocation

Past Weather in Appleton — Graph

°F

Appleton Temperature Yesterday

Maximum temperature yesterday: 82 °F (at 2:45 PM)
Minimum temperature yesterday: 64 °F (at 1:35 AM)
Average temperature yesterday: 71 °F

High & Low Weather Summary for the Past Weeks

 TemperatureHumidityPressure
High86 °F (Aug 18, 2:45 PM)100% (Aug 15, 1:55 AM)30.26 "Hg (Aug 15, 1:55 AM)
Low52 °F (Aug 22, 3:55 AM)39% (Aug 15, 1:45 PM)29.53 "Hg (Aug 20, 1:45 PM)
Average68 °F81%30.01 "Hg
* Reported Aug 14 11:15 PM — Aug 29 11:15 PM, Appleton, Weather by CustomWeather, © 2016

Note: Actual official high and low records may vary slightly from our data, if they occured in-between our weather recording intervals... More about our weather records

Advertising

Appleton Weather History for the Previous 24 Hours

Scroll right to see more
 ConditionsComfort  
Time TempWeatherWind HumidityBarometerVisibility
11:15 PM
Mon, Aug 29
72 °FClear.5 mph94%30.16 "Hg10 mi
10:45 PM72 °FPassing clouds.5 mph94%30.16 "Hg10 mi
9:45 PM72 °FPassing clouds.5 mph94%30.16 "Hg10 mi
8:45 PM73 °FPartly cloudy.5 mph78%30.16 "Hg10 mi
7:45 PM77 °FBroken clouds.3 mph69%30.16 "Hg10 mi
5:45 PM81 °FPartly sunny.7 mph62%30.17 "Hg10 mi
4:45 PM82 °FPartly sunny.7 mph58%30.17 "Hg10 mi
3:45 PM82 °FScattered clouds.14 mph62%30.15 "Hg10 mi
2:45 PM82 °FPartly sunny.12 mph58%30.18 "Hg10 mi
1:45 PM81 °FPartly sunny.9 mph62%30.22 "Hg10 mi
12:45 PM81 °FBroken clouds.9 mph66%30.24 "Hg10 mi
11:45 AM79 °FBroken clouds.8 mph65%30.26 "Hg10 mi
10:45 AM77 °FPartly sunny.7 mph69%30.26 "Hg7 mi
9:45 AM75 °FPartly sunny.3 mph69%30.25 "Hg10 mi
7:45 AM70 °FPartly sunny.3 mph88%30.24 "Hg10 mi
6:45 AM66 °FPartly cloudy.No wind94%30.24 "Hg10 mi
5:45 AM66 °FPartly cloudy.No wind100%30.24 "Hg10 mi
5:15 AM66 °FPassing clouds.No wind94%30.23 "Hg10 mi
4:55 AM66 °FMostly cloudy.No wind94%30.23 "Hg10 mi
4:35 AM68 °FOvercast.No wind88%30.23 "Hg10 mi
4:15 AM66 °FPassing clouds.No wind94%30.23 "Hg10 mi
3:55 AM64 °FPassing clouds.No wind100%30.22 "Hg10 mi
3:35 AM66 °FPassing clouds.No wind94%30.23 "Hg10 mi
3:15 AM66 °FOvercast.No wind94%30.23 "Hg10 mi
2:55 AM66 °FOvercast.3 mph94%30.22 "Hg10 mi
2:35 AM66 °FOvercast.6 mph94%30.23 "Hg10 mi
2:15 AM66 °FMostly cloudy.6 mph94%30.23 "Hg10 mi
1:55 AM66 °FPartly cloudy.6 mph94%30.23 "Hg10 mi
1:35 AM64 °FPassing clouds.5 mph100%30.22 "Hg10 mi
1:15 AM66 °FClear.5 mph94%30.22 "Hg10 mi
12:55 AM68 °FClear.5 mph94%30.22 "Hg10 mi
12:35 AM68 °FClear.3 mph94%30.22 "Hg10 mi
12:15 AM66 °FClear.3 mph100%30.21 "Hg10 mi
Weather by CustomWeather, © 2016

See weather overviewHow to use our weather pages